This is the latest recevied weather packets stored in our database for station/object W2BP-13. If no packets are shown the sender has not sent any weather packets the latest 10 day(s).
| Time | Temp. | Humidity | Pressure | Rain* | Wind** | Luminosity | Snow |
|---|---|---|---|---|---|---|---|
| 1777608633 | 16.67° C | 38% | 1020.6 hPa | 0 mm | - | - | - |
| 1777607733 | 16.67° C | 34% | 1020.3 hPa | 0 mm | - | - | - |
| 1777606833 | 16.67° C | 33% | 1020.3 hPa | 0 mm | - | - | - |
| 1777605933 | 17.78° C | 32% | 1020.2 hPa | 0 mm | - | - | - |
| 1777605032 | 20° C | 29% | 1020.1 hPa | 0 mm | - | - | - |
| 1777604133 | 21.11° C | 27% | 1020 hPa | 0 mm | - | - | - |
| 1777603232 | 21.11° C | 28% | 1020.3 hPa | 0 mm | - | - | - |
| 1777602333 | 22.78° C | 26% | 1020.2 hPa | 0 mm | - | - | - |
| 1777601433 | 21.67° C | 25% | 1020.2 hPa | 0 mm | - | - | - |
| 1777600533 | 24.44° C | 23% | 1020.2 hPa | 0 mm | - | - | - |
| 1777599633 | 25.56° C | 23% | 1020.3 hPa | 0 mm | - | - | - |
| 1777598733 | 26.11° C | 21% | 1020.3 hPa | 0 mm | - | - | - |
| 1777597833 | 26.11° C | 21% | 1020.3 hPa | 0 mm | - | - | - |
| 1777596933 | 26.67° C | 21% | 1020.6 hPa | 0 mm | - | - | - |
| 1777596032 | 26.67° C | 19% | 1020.4 hPa | 0 mm | - | - | - |
| 1777595132 | 26.67° C | 20% | 1020.4 hPa | 0 mm | - | - | - |
| 1777594233 | 26.67° C | 21% | 1020.6 hPa | 0 mm | - | - | - |
| 1777593332 | 26.67° C | 21% | 1020.8 hPa | 0 mm | - | - | - |
| 1777592433 | 26.67° C | 21% | 1020.8 hPa | 0 mm | - | - | - |
| 1777591533 | 27.22° C | 18% | 1021.1 hPa | 0 mm | - | - | - |
| 1777590632 | 27.22° C | 20% | 1021.4 hPa | 0 mm | - | - | - |
| 1777589733 | 27.22° C | 16% | 1021.6 hPa | 0 mm | - | - | - |
| 1777588832 | 26.67° C | 22% | 1021.9 hPa | 0 mm | - | - | - |
| 1777587932 | 26.67° C | 23% | 1021.9 hPa | 0 mm | - | - | - |
| 1777587033 | 26.67° C | 22% | 1022.3 hPa | 0 mm | - | - | - |
* Rain latest hour (hover to see other rain measurements)
** Current wind speed in m/s (hover to see current wind gust speed)